Location: Arbon
(43.0005°N, 0.7472°E)
Time: 03:15:22
(UTC+00:00)

OAO 3 Rocket - Pass Details

Date: 07 August 2020
Orbit: 629 x 683 km, 35.0° (Epoch: 27 September)

Event Time Altitude Azimuth Distance (km) Brightness Sun altitude
Exits shadow 04:15:28 - 232° (SW) 2,222 5.2 -7.2°
Reaches altitude 10° 04:15:48 10° 231° (SW) 2,112 5.1 -7.2°
Maximum altitude 04:20:04 29° 171° (S) 1,220 4.4 -6.5°
Drops below altitude 10° 04:24:19 10° 111° (ESE) 2,097 6.4 -5.8°
Sets 04:26:55 0° 101° (E) 3,003 7.5 -5.4°
